Lucknow, India

8:29 PM IST on March 25, 2017 (GMT +0530)
Lucknow

Weather History for VILK - November, 2012

Change the Weather History Date:

Thursday, November 22, 2012

  Actual Average Record
Temperature  
Mean Temperature 63 °F -  
Max Temperature 80 °F 71 °F 86 °F (2016)
Min Temperature 46 °F 53 °F 45 °F (2013)
Degree Days  
Heating Degree Days 2    
Growing Degree Days 13 (Base 50)    
Moisture  
Dew Point 49 °F    
Average Humidity 59    
Maximum Humidity 94    
Minimum Humidity 26    
Precipitation  
Precipitation 0.00 in - - ()
Sea Level Pressure  
Sea Level Pressure 29.92 in    
Wind  
Wind Speed 2 mph ()    
Max Wind Speed 9 mph    
Max Gust Speed -    
Visibility 1.4 miles    
Events Fog    
Averages and records for this station are not official NWS values.
T = Trace of Precipitation, MM = Missing Value Source: Averaged Metar Reports

Daily Weather History Graph

Daily Weather History Graph

Search for Another Location

Airport or City:

Trip Planner

Search our weather history database for the weather conditions in past years. The results will help you decide how hot, cold, wet, or windy it might be!

Date:

Astronomy

Nov. 22, 2012 Rise Set
Actual Time 6:31 AM IST 5:13 PM IST
Civil Twilight 6:06 AM IST 5:38 PM IST
Nautical Twilight 5:38 AM IST 6:06 PM IST
Astronomical Twilight 5:10 AM IST 6:34 PM IST
Moon 1:18 PM IST (11/22) 12:53 AM IST (11/22)
Length of Visible Light 11h 32m
Length of Day
10h 42m
Waxing Gibbous, 67% of the Moon is Illuminated
Nov 22
Waxing Gibbous
Nov 28
Full
Dec 6
Last Quarter
Dec 13
New
Dec 20
First Quarter

Hourly Weather History & Observations

Time (IST) Temp. Dew Point Humidity Pressure Visibility Wind Dir Wind Speed Gust Speed Precip Events Conditions
12:00 AM 53.6 °F 51.8 °F 94% 29.95 in 1.6 mi Calm Calm - N/A   Mist
1:00 AM 53.6 °F 51.8 °F 94% 29.92 in 1.6 mi Calm Calm - N/A   Mist
2:00 AM 57.2 °F 50.0 °F 77% 29.92 in 1.6 mi Variable 2.3 mph - N/A   Mist
2:30 AM 59 °F 49 °F 59% 29.94 in 1 mi Calm Calm - -   Mist
3:00 AM 57.2 °F 48.2 °F 72% 29.92 in 1.6 mi Variable 2.3 mph - N/A   Mist
4:00 AM 57.2 °F 48.2 °F 72% 29.89 in 1.2 mi Calm Calm - N/A   Mist
5:00 AM 55.4 °F 48.2 °F 77% 29.92 in 1.2 mi Calm Calm - N/A   Mist
5:30 AM 51.8 °F 48.2 °F 88% 29.92 in 0.9 mi Calm Calm - N/A   Mist
6:00 AM 50.0 °F 48.2 °F 94% 29.92 in 0.9 mi Calm Calm - N/A   Mist
6:30 AM 50.0 °F 48.2 °F 94% 29.92 in 0.6 mi Calm Calm - N/A Fog Shallow Fog
7:30 AM 53.6 °F 46.4 °F 77% 29.95 in 0.4 mi Variable 2.3 mph - N/A Fog Shallow Fog
8:30 AM 62 °F 52 °F 60% 29.99 in 0 mi West 3.5 mph - -   Mist
8:30 AM 62.6 °F 51.8 °F 68% 29.98 in 0.6 mi West 3.5 mph - N/A   Mist
9:00 AM 64.4 °F 51.8 °F 64% 29.98 in 0.6 mi West 3.5 mph - N/A   Mist
9:30 AM 66.2 °F 50.0 °F 56% 29.98 in 0.7 mi West 3.5 mph - N/A   Mist
10:30 AM 73.4 °F 48.2 °F 41% 29.98 in 0.9 mi WNW 3.5 mph - N/A   Haze
11:00 AM 73.4 °F 48.2 °F 41% 29.98 in 1.1 mi WNW 4.6 mph - N/A   Haze
11:30 AM 77.0 °F 50.0 °F 39% 29.95 in 1.2 mi WNW 5.8 mph - N/A   Haze
12:00 PM 77.0 °F 50.0 °F 39% 29.95 in 1.2 mi WNW 5.8 mph - N/A   Haze
12:30 PM 77.0 °F 48.2 °F 36% 29.92 in 1.2 mi WNW 5.8 mph - N/A   Haze
1:00 PM 78.8 °F 42.8 °F 28% 29.92 in 1.6 mi WNW 6.9 mph - N/A   Haze
1:30 PM 78.8 °F 42.8 °F 28% 29.89 in 1.6 mi West 9.2 mph - N/A   Haze
2:30 PM 80.6 °F 42.8 °F 26% 29.86 in 1.9 mi WNW 5.8 mph - N/A   Haze
3:00 PM 80.6 °F 44.6 °F 28% 29.86 in 1.9 mi WNW 6.9 mph - N/A   Haze
4:00 PM 77.0 °F 46.4 °F 34% 29.86 in 1.9 mi West 4.6 mph - N/A   Haze
4:30 PM 77.0 °F 46.4 °F 34% 29.86 in 1.9 mi West 4.6 mph - N/A   Haze
5:00 PM 73.4 °F 46.4 °F 38% 29.86 in 1.9 mi West 4.6 mph - N/A   Haze
5:30 PM 71.6 °F 48.2 °F 43% 29.86 in 1.9 mi Variable 2.3 mph - N/A   Haze
6:00 PM 68.0 °F 50.0 °F 52% 29.86 in 1.9 mi Variable 2.3 mph - N/A   Haze
6:30 PM 64.4 °F 51.8 °F 64% 29.89 in 1.9 mi Variable 2.3 mph - N/A   Haze
7:00 PM 64.4 °F 51.8 °F 64% 29.89 in 1.9 mi Variable 2.3 mph - N/A   Haze
7:30 PM 64.4 °F 48.2 °F 56% 29.92 in 1.9 mi Variable 2.3 mph - N/A   Haze
8:00 PM 62.6 °F 48.2 °F 59% 29.92 in 1.9 mi Calm Calm - N/A   Haze
8:30 PM 60.8 °F 50.0 °F 68% 29.92 in 1.9 mi Calm Calm - N/A   Haze
9:00 PM 60.8 °F 50.0 °F 68% 29.92 in 1.9 mi Calm Calm - N/A   Haze
10:00 PM 57.2 °F 48.2 °F 72% 29.95 in 1.9 mi Calm Calm - N/A   Haze
11:00 PM 55.4 °F 48.2 °F 77% 29.92 in 1.6 mi Calm Calm - N/A   Mist